{"data":{"norad_id":41784,"intl_designator":"2016-059B","name":"PISAT","alt_names":[],"object_type":"PAYLOAD","status":"ACTIVE","operator":null,"country":"IND","launch_date":"2016-09-26","launch_site_code":"SRILR","launch_vehicle":null,"mission":null,"orbit_class":"UNKNOWN","rcs_meters":0.145,"size_class":null,"mass_kg":null,"dimensions":null,"purposes":["science","tech_demo"],"wikipedia_slug":null,"has_3d_model":false,"image_url":null,"decayed_at":null,"tle_current":{"epoch":"2026-09-18T22:25:05.230848Z","epoch_age_seconds":149670,"freshness":"FRESH","line1":"1 41784U 16059B   26261.93408832  .00000591  00000+0  10799-3 0  9992","line2":"2 41784  97.8252 258.3977 0027454 265.9754  93.8313 14.69129661533508","mean_motion":14.69129661,"eccentricity":0.0027454,"inclination_deg":97.8252,"raan_deg":258.3977,"arg_perigee_deg":265.9754,"mean_anomaly_deg":93.8313,"bstar":0.00010799,"rev_number":53350,"period_min":98.017216466777,"perigee_km":644.51484262694,"apogee_km":683.18097335975,"semimajor_km":7041.9849079933,"source":"CELESTRAK","updated_at":"2026-09-20T09:00:47.584706Z"}}}